Canberra, Australia

7:44 PM AEST on September 20, 2017 (GMT +1000)
Canberra

Weather History for YSCB - May, 2013

Change the Weather History Date:

Monday, May 27, 2013

  Actual Average Record
Temperature  
Mean Temperature 44 °F -  
Max Temperature 61 °F 55 °F - ()
Min Temperature 26 °F 34 °F - ()
Degree Days  
Heating Degree Days 22    
Moisture  
Dew Point 33 °F    
Average Humidity 80    
Maximum Humidity 100    
Minimum Humidity 27    
Precipitation  
Precipitation 0.00 in 0.04 in - ()
Sea Level Pressure  
Sea Level Pressure 30.38 in    
Wind  
Wind Speed 4 mph ()    
Max Wind Speed 14 mph    
Max Gust Speed -    
Visibility 5.0 miles    
Events Fog    
T = Trace of Precipitation, MM = Missing Value Source: Averaged Metar Reports

Daily Weather History Graph

Daily Weather History Graph

Search for Another Location

Airport or City:

Trip Planner

Search our weather history database for the weather conditions in past years. The results will help you decide how hot, cold, wet, or windy it might be!

Date:

Astronomy

May. 27, 2013 Rise Set
Actual Time 6:59 AM AEST 5:00 PM AEST
Civil Twilight 6:32 AM AEST 5:28 PM AEST
Nautical Twilight 6:00 AM AEST 5:59 PM AEST
Astronomical Twilight 5:30 AM AEST 6:30 PM AEST
Moon 7:18 PM AEST (5/27) 8:46 AM AEST (5/27)
Length of Visible Light 10h 56m
Length of Day
10h 00m
Waning Gibbous, 95% of the Moon is Illuminated
May 27
Waning Gibbous
Jun 1
Last Quarter
Jun 9
New
Jun 17
First Quarter
Jun 23
Full

Hourly Weather History & Observations

Time (AEST) Temp. Windchill Dew Point Humidity Pressure Visibility Wind Dir Wind Speed Gust Speed Precip Events Conditions
12:00 AM 28 °F - 28 °F 99% 30.33 in 0 mi North 4.6 mph - -  
12:00 AM 28.4 °F 23.3 °F 28.4 °F 100% 30.30 in 0.2 mi North 4.6 mph - N/A   Unknown
12:30 AM 28.4 °F 24.6 °F 26.6 °F 93% 30.30 in 0.4 mi NW 3.5 mph - N/A   Unknown
12:53 AM 28.4 °F 23.3 °F 26.6 °F 93% 30.30 in 0.6 mi NNW 4.6 mph - N/A   Unknown
1:00 AM 28 °F - 28 °F 100% 30.32 in - North 2.3 mph - -  
1:00 AM 28.4 °F - 28.4 °F 100% 30.30 in - North 2.3 mph - N/A   Unknown
1:12 AM 26.6 °F - 26.6 °F 100% 30.30 in 0.6 mi Calm Calm - N/A   Unknown
1:14 AM 26.6 °F - 26.6 °F 100% 30.30 in 0.6 mi Calm Calm - N/A   Unknown
1:29 AM 26.6 °F - 26.6 °F 100% 30.33 in 0.6 mi Calm Calm - N/A   Unknown
1:30 AM 26.6 °F - 26.6 °F 100% 30.33 in 0.5 mi Calm Calm - N/A   Unknown
1:34 AM 26.6 °F - 26.6 °F 100% 30.33 in 0.6 mi NW 2.3 mph - N/A   Unknown
1:50 AM 28.4 °F 24.6 °F 26.6 °F 93% 30.33 in 6.2 mi SSE 3.5 mph - N/A   Scattered Clouds
2:00 AM 28.4 °F 24.6 °F 28.4 °F 100% 30.33 in 6.2 mi SE 3.5 mph - N/A   Scattered Clouds
2:30 AM 28.4 °F - 28.4 °F 100% 30.33 in 6.2 mi Calm Calm - N/A   Unknown
2:42 AM 28.4 °F - 28.4 °F 100% 30.33 in 3.7 mi Calm Calm - N/A   Unknown
2:59 AM 28.4 °F - 28.4 °F 100% 30.33 in 5.6 mi Calm Calm - N/A   Unknown
3:00 AM 29 °F - 28 °F 95% 30.36 in 5 mi Calm Calm - -  
3:00 AM 28.4 °F - 28.4 °F 100% 30.33 in 5.0 mi Calm Calm - N/A   Unknown
3:02 AM 28.4 °F - 28.4 °F 100% 30.33 in 3.7 mi Calm Calm - N/A   Unknown
3:22 AM 28.4 °F - 28.4 °F 100% 30.33 in 0.6 mi Calm Calm - N/A   Unknown
3:27 AM 28.4 °F - 28.4 °F 100% 30.33 in 0.6 mi Calm Calm - N/A   Unknown
3:30 AM 28.4 °F - 28.4 °F 100% 30.33 in 1.7 mi Calm Calm - N/A   Unknown
3:42 AM 28.4 °F - 28.4 °F 100% 30.33 in 6.2 mi Calm Calm - N/A   Unknown
3:53 AM 28.4 °F - 28.4 °F 100% 30.33 in 3.1 mi Calm Calm - N/A   Unknown
4:00 AM 28 °F - 27 °F 94% 30.35 in - Calm Calm - -  
4:00 AM 26.6 °F - 26.6 °F 100% 30.33 in 1.1 mi Calm Calm - N/A   Unknown
4:16 AM 28.4 °F - 28.4 °F 100% 30.33 in 6.2 mi Calm Calm - N/A   Unknown
4:30 AM 26.6 °F - 26.6 °F 100% 30.33 in 6.2 mi Calm Calm - N/A   Partly Cloudy
5:00 AM 28.4 °F - 26.6 °F 93% 30.36 in 5.0 mi NNE 1.2 mph - N/A   Partly Cloudy
5:30 AM 28.4 °F - 28.4 °F 100% 30.36 in 6.2 mi North 1.2 mph - N/A   Partly Cloudy
6:00 AM 30 °F - 29 °F 97% 30.39 in - North 4.6 mph - -  
6:00 AM 30.2 °F 25.4 °F 30.2 °F 100% 30.36 in 6.2 mi North 4.6 mph - N/A   Partly Cloudy
6:30 AM 35.6 °F 30.7 °F 35.6 °F 100% 30.39 in 6.2 mi SE 5.8 mph - N/A   Partly Cloudy
6:53 AM 35.6 °F 31.7 °F 35.6 °F 100% 30.39 in 6.2 mi ESE 4.6 mph - N/A Fog Shallow Fog
7:00 AM 37 °F - 35 °F 91% 30.41 in - ESE 1.2 mph - -  
7:00 AM 37.4 °F - 35.6 °F 93% 30.39 in 6.2 mi ESE 1.2 mph - N/A Fog Shallow Fog
7:30 AM 39.2 °F 35.9 °F 35.6 °F 87% 30.39 in 6.2 mi SE 4.6 mph - N/A   Scattered Clouds
8:00 AM 42.8 °F 39.3 °F 37.4 °F 81% 30.42 in 6.2 mi SE 5.8 mph - N/A   Scattered Clouds
8:30 AM 44.6 °F 39.7 °F 37.4 °F 76% 30.42 in 6.2 mi ESE 9.2 mph - N/A   Partly Cloudy
9:00 AM 47 °F - 37 °F 59% 30.46 in 16 mi SE 8.1 mph - -   Partly Cloudy
9:00 AM 46.4 °F 42.4 °F 37.4 °F 71% 30.42 in 6.2 mi SE 8.1 mph - N/A   Partly Cloudy
9:30 AM 50.0 °F - 37.4 °F 62% 30.45 in 6.2 mi SSE 9.2 mph - N/A   Partly Cloudy
10:00 AM 53 °F - 35 °F 39% 30.46 in - SSE 12.7 mph - -  
10:00 AM 53.6 °F - 35.6 °F 51% 30.45 in 6.2 mi SSE 12.7 mph - N/A   Partly Cloudy
10:30 AM 53.6 °F - 35.6 °F 51% 30.45 in 6.2 mi SSE 13.8 mph - N/A   Partly Cloudy
11:00 AM 55.4 °F - 35.6 °F 47% 30.42 in 6.2 mi South 11.5 mph - N/A   Scattered Clouds
11:30 AM 55.4 °F - 35.6 °F 47% 30.42 in 6.2 mi South 10.4 mph - N/A   Scattered Clouds
12:00 PM 58 °F - 36 °F 32% 30.44 in - ESE 10.4 mph - -  
12:00 PM 57.2 °F - 35.6 °F 44% 30.42 in 6.2 mi ESE 10.4 mph - N/A   Scattered Clouds
12:30 PM 59.0 °F - 35.6 °F 42% 30.39 in 6.2 mi SE 10.4 mph - N/A   Partly Cloudy
1:00 PM 60 °F - 36 °F 29% 30.40 in - ESE 9.2 mph - -  
1:00 PM 59.0 °F - 35.6 °F 42% 30.39 in 6.2 mi ESE 9.2 mph - N/A   Scattered Clouds
1:30 PM 59.0 °F - 37.4 °F 45% 30.39 in 6.2 mi ESE 8.1 mph - N/A   Scattered Clouds
2:00 PM 60.8 °F - 37.4 °F 42% 30.36 in 6.2 mi SSE 9.2 mph - N/A   Scattered Clouds
2:30 PM 60.8 °F - 37.4 °F 42% 30.36 in 6.2 mi ESE 9.2 mph - N/A   Scattered Clouds
3:00 PM 61 °F - 36 °F 27% 30.40 in - ESE 11.5 mph - -  
3:00 PM 60.8 °F - 35.6 °F 39% 30.36 in 6.2 mi ESE 11.5 mph - N/A   Scattered Clouds
3:30 PM 57.2 °F - 37.4 °F 48% 30.39 in 6.2 mi East 9.2 mph - N/A   Scattered Clouds
4:00 PM 58 °F - 37 °F 33% 30.40 in - ESE 12.7 mph - -  
4:00 PM 59.0 °F - 37.4 °F 45% 30.39 in 6.2 mi ESE 12.7 mph - N/A   Scattered Clouds
4:30 PM 55.4 °F - 37.4 °F 51% 30.39 in 6.2 mi East 9.2 mph - N/A   Scattered Clouds
5:00 PM 51.8 °F - 39.2 °F 62% 30.39 in 6.2 mi East 8.1 mph - N/A   Partly Cloudy
5:30 PM 48.2 °F - 39.2 °F 71% 30.39 in 6.2 mi ESE 9.2 mph - N/A   Partly Cloudy
6:00 PM 45 °F - 38 °F 70% 30.44 in - East 6.9 mph - -  
6:00 PM 44.6 °F 40.7 °F 39.2 °F 81% 30.42 in - East 6.9 mph - N/A   Clear
6:30 PM 42.8 °F 38.6 °F 37.4 °F 81% 30.42 in 6.2 mi East 6.9 mph - N/A   Partly Cloudy
7:00 PM 42 °F - 37 °F 77% 30.45 in - NE 1.2 mph - -  
7:00 PM 41.0 °F - 37.4 °F 87% 30.42 in 6.2 mi NE 1.2 mph - N/A   Partly Cloudy
7:30 PM 42.8 °F - 37.4 °F 81% 30.45 in 6.2 mi Calm Calm - N/A   Partly Cloudy
8:00 PM 42.8 °F - 39.2 °F 87% 30.45 in 6.2 mi Calm Calm - N/A   Partly Cloudy
8:30 PM 39.2 °F 35.9 °F 35.6 °F 87% 30.45 in 6.2 mi South 4.6 mph - N/A   Partly Cloudy
9:00 PM 38 °F - 37 °F 93% 30.47 in - South 4.6 mph - -  
9:00 PM 37.4 °F 33.8 °F 37.4 °F 100% 30.45 in 6.2 mi South 4.6 mph - N/A   Unknown
9:30 PM 37.4 °F 33.8 °F 37.4 °F 100% 30.45 in 6.2 mi North 4.6 mph - N/A   Unknown
10:00 PM 36 °F - 36 °F 100% 30.47 in - North 3.5 mph - -  
10:00 PM 37.4 °F 34.9 °F 37.4 °F 100% 30.45 in 6.2 mi North 3.5 mph - N/A   Unknown
10:30 PM 37.4 °F - 37.4 °F 100% 30.45 in 6.2 mi ESE 1.2 mph - N/A   Mostly Cloudy
11:00 PM 37.4 °F - 37.4 °F 100% 30.45 in 6.2 mi NNW 1.2 mph - N/A   Mostly Cloudy
11:30 PM 35.6 °F - 33.8 °F 93% 30.45 in 6.2 mi Calm Calm - N/A   Unknown